Weather History for Pineville, WV

Change the Weather History Date:

Friday, March 7, 2014

  Actual Average (KBKW) Record (KBKW)
Temperature  
Mean Temperature 46 °F 39 °F  
Max Temperature 59 °F 49 °F 74 °F (2009)
Min Temperature 33 °F 30 °F -1 °F (1960)
Degree Days  
Heating Degree Days 19 26  
Month to date heating degree days 186  
Since 1 July heating degree days 4187  
Cooling Degree Days 0 0  
Month to date cooling degree days 0  
Year to date cooling degree days 0  
Moisture  
Dew Point 34 °F    
Average Humidity 75    
Maximum Humidity 100    
Minimum Humidity 45    
Precipitation  
Precipitation 0.00 in 0.11 in 2.00 in (1927)
Month to date precipitation 0.77  
Year to date precipitation 6.34  
Snow  
Snow 0.00 in - - ()
Month to date snowfall  
Since 1 September snowfall  
Snow Depth -    
Sea Level Pressure  
Sea Level Pressure 30.05 in    
Wind  
Wind Speed - (North)    
Max Wind Speed -    
Max Gust Speed -    
Visibility 10 miles    
Events      
T = Trace of Precipitation, MM = Missing Value Source: NWS Daily Summary

Daily Weather History Graph

Daily Weather History Graph

Search for Another Location

Airport:

Trip Planner

Search our weather history database for the weather conditions in past years. The results will help you decide how hot, cold, wet, or windy it might be!

Date:

Astronomy

Mar. 07, 2014 Rise Set
Actual Time 6:49 AM EST 6:25 PM EST
Civil Twilight 6:22 AM EST 6:52 PM EST
Nautical Twilight 5:52 AM EST 7:22 PM EST
Astronomical Twilight 5:22 AM EST 7:52 PM EST
Moon 10:48 AM EST (3/7) 12:22 AM EST (3/7)
Length of Visible Light 12h 29m
Length of Day
11h 36m
Waxing Crescent, 42% of the Moon is Illuminated
Mar 7
Waxing Crescent
Mar 8
First Quarter
Mar 16
Full
Mar 23
Last Quarter
Mar 30
New

Hourly Weather History & Observations

Time (EST) Temp. Dew Point Humidity Pressure Visibility Wind Dir Wind Speed Gust Speed Precip Events Conditions
12:15 AM 36.9 °F 28.4 °F 71% 30.13 in 10.0 mi North - - N/A   Clear
12:35 AM 36.5 °F 28.6 °F 73% 30.13 in 10.0 mi North - - N/A   Clear
12:55 AM 36.5 °F 28.8 °F 74% 30.12 in 10.0 mi North - - N/A   Clear
1:15 AM 36.3 °F 29.1 °F 75% 30.12 in 10.0 mi North - - N/A   Clear
1:35 AM 36.5 °F 29.3 °F 75% 30.12 in 10.0 mi North - - N/A   Scattered Clouds
1:55 AM 36.1 °F 29.3 °F 76% 30.11 in 10.0 mi North - - N/A   Scattered Clouds
2:15 AM 36.0 °F 29.7 °F 78% 30.10 in 10.0 mi North - - N/A   Scattered Clouds
2:35 AM 35.8 °F 30.2 °F 80% 30.10 in 10.0 mi North - - N/A   Scattered Clouds
2:55 AM 36.3 °F 30.4 °F 79% 30.10 in 10.0 mi North - - N/A   Scattered Clouds
3:15 AM 36.5 °F 30.7 °F 80% 30.09 in 10.0 mi North - - N/A   Mostly Cloudy
3:35 AM 36.5 °F 30.9 °F 80% 30.08 in 10.0 mi North - - N/A   Overcast
3:55 AM 36.7 °F 31.1 °F 80% 30.07 in 10.0 mi North - - N/A   Overcast
4:15 AM 36.7 °F 31.1 °F 80% 30.08 in 10.0 mi North - - N/A   Overcast
4:35 AM 36.7 °F 31.1 °F 80% 30.08 in 10.0 mi North - - N/A   Overcast
4:55 AM 36.7 °F 31.5 °F 81% 30.09 in 10.0 mi North - - N/A   Mostly Cloudy
5:15 AM 36.5 °F 31.6 °F 83% 30.09 in 10.0 mi North - - N/A   Mostly Cloudy
5:35 AM 36.5 °F 31.6 °F 83% 30.08 in 10.0 mi North - - N/A   Scattered Clouds
5:55 AM 36.5 °F 31.5 °F 82% 30.08 in 10.0 mi North - - N/A   Clear
6:15 AM 36.1 °F 31.6 °F 84% 30.08 in 10.0 mi North - - N/A   Scattered Clouds
6:35 AM 34.9 °F 32.0 °F 89% 30.08 in 10.0 mi North - - N/A   Overcast
6:55 AM 34.9 °F 32.0 °F 89% 30.08 in 10.0 mi North - - N/A   Overcast
7:15 AM 35.6 °F 32.0 °F 87% 30.09 in 10.0 mi North - - N/A   Overcast
7:30 AM 35.6 °F 32.0 °F 87% 30.09 in 10.0 mi North - - N/A   Overcast
7:55 AM 36.9 °F 32.0 °F 83% 30.10 in 10.0 mi North - - N/A   Overcast
8:15 AM 37.6 °F 32.2 °F 81% 30.10 in 10.0 mi North - - N/A   Mostly Cloudy
8:35 AM 38.1 °F 32.2 °F 79% 30.10 in 10.0 mi North - - N/A   Scattered Clouds
8:55 AM 39.4 °F 32.7 °F 77% 30.11 in 10.0 mi North - - N/A   Scattered Clouds
9:15 AM 40.1 °F 32.9 °F 75% 30.10 in 10.0 mi North - - N/A   Clear
9:35 AM 41.2 °F 33.1 °F 73% 30.10 in 10.0 mi North - - N/A   Clear
9:55 AM 42.3 °F 33.4 °F 71% 30.10 in 10.0 mi North - - N/A   Clear
10:15 AM 43.7 °F 33.8 °F 68% 30.10 in 10.0 mi North - - N/A   Clear
10:35 AM 46.2 °F 34.7 °F 64% 30.10 in 10.0 mi North - - N/A   Clear
10:55 AM 46.6 °F 34.9 °F 64% 30.10 in 10.0 mi North - - N/A   Clear
11:10 AM 47.3 °F 35.1 °F 62% 30.10 in 10.0 mi North - - N/A   Clear
11:35 AM 48.7 °F 36.1 °F 62% 30.08 in 10.0 mi North - - N/A   Clear
11:55 AM 50.0 °F 36.9 °F 61% 30.08 in 10.0 mi North - - N/A   Clear
12:15 PM 50.9 °F 36.9 °F 59% 30.07 in 10.0 mi North - - N/A   Clear
12:35 PM 52.5 °F 37.6 °F 57% 30.06 in 10.0 mi North - - N/A   Clear
12:55 PM 53.4 °F 37.8 °F 55% 30.04 in 10.0 mi North - - N/A   Clear
1:15 PM 54.9 °F 38.7 °F 54% 30.03 in 10.0 mi North - - N/A   Clear
1:35 PM 55.0 °F 37.9 °F 53% 30.02 in 10.0 mi North - - N/A   Clear
1:55 PM 56.3 °F 38.8 °F 52% 30.01 in 10.0 mi North - - N/A   Clear
2:15 PM 56.1 °F 38.5 °F 52% 30.01 in 10.0 mi North - - N/A   Scattered Clouds
2:35 PM 56.7 °F 38.3 °F 50% 30.00 in 10.0 mi North - - N/A   Mostly Cloudy
2:55 PM 55.2 °F 38.5 °F 53% 29.99 in 10.0 mi North - - N/A   Mostly Cloudy
3:15 PM 57.6 °F 38.1 °F 48% 29.98 in 10.0 mi North - - N/A   Scattered Clouds
3:35 PM 58.3 °F 38.1 °F 47% 29.98 in 10.0 mi North - - N/A   Scattered Clouds
3:55 PM 59.0 °F 37.9 °F 46% 29.98 in 10.0 mi North - - N/A   Clear
4:15 PM 59.4 °F 37.9 °F 45% 29.97 in 10.0 mi North - - N/A   Scattered Clouds
4:35 PM 58.6 °F 37.8 °F 46% 29.97 in 10.0 mi North - - N/A   Scattered Clouds
4:55 PM 56.3 °F 37.2 °F 49% 29.97 in 10.0 mi North - - N/A   Clear
5:15 PM 51.4 °F 38.8 °F 62% 29.97 in 10.0 mi North - - N/A   Clear
5:35 PM 48.2 °F 38.8 °F 70% 29.97 in 10.0 mi North - - N/A   Clear
5:55 PM 46.6 °F 38.7 °F 74% 29.98 in 10.0 mi North - - N/A   Clear
6:15 PM 45.5 °F 38.3 °F 76% 29.98 in 10.0 mi North - - N/A   Clear
6:35 PM 43.7 °F 38.3 °F 81% 29.99 in 10.0 mi North - - N/A   Clear
6:55 PM 42.3 °F 37.6 °F 83% 30.00 in 10.0 mi North - - N/A   Clear
7:15 PM 41.0 °F 37.0 °F 86% 30.00 in 10.0 mi North - - N/A   Clear
7:35 PM 40.1 °F 36.7 °F 88% 30.01 in 10.0 mi North - - N/A   Clear
7:55 PM 39.2 °F 36.5 °F 90% 30.00 in 10.0 mi North - - N/A   Clear
8:15 PM 38.3 °F 36.3 °F 93% 30.01 in 10.0 mi North - - N/A   Clear
8:35 PM 37.6 °F 35.6 °F 93% 30.01 in 10.0 mi North - - N/A   Clear
8:55 PM 37.0 °F 35.4 °F 94% 30.02 in 10.0 mi North - - N/A   Clear
9:15 PM 36.5 °F 35.6 °F 97% 30.03 in 10.0 mi North - - N/A   Clear
9:35 PM 35.8 °F 34.7 °F 96% 30.03 in 10.0 mi North - - N/A   Clear
9:55 PM 35.2 °F 34.5 °F 97% 30.03 in 10.0 mi North - - N/A   Clear
10:15 PM 35.1 °F 34.7 °F 99% 30.02 in 10.0 mi North - - N/A   Clear
10:35 PM 34.7 °F 34.2 °F 98% 30.03 in 10.0 mi North - - N/A   Clear
10:55 PM 34.3 °F 34.0 °F 99% 30.03 in 10.0 mi North - - N/A   Clear
11:15 PM 34.0 °F 33.8 °F 99% 30.02 in 10.0 mi North - - N/A   Clear
11:35 PM 33.8 °F 33.8 °F 100% 30.02 in 10.0 mi North - - N/A   Clear
11:55 PM 33.4 °F 33.4 °F 100% 30.02 in 10.0 mi North - - N/A   Clear